Regional Weather Roundup
Issued by NWS Boston, MA

Current Version | Previous Version | Text Only | Print | Product List | Glossary Off
Versions: 1 2 3 4 5 6 7 8 9 10 11 12 13 14 15 16 17 18 19 20 21 22 23 24 25 26 27 28 29 30 31 32 33 34 35 36 37 38 39 40 41 42 43 44 45 46 47 48 49 50
000 ASUS41 KBOX 220400 RWRBOX REGIONAL WEATHER ROUNDUP NATIONAL WEATHER SERVICE BOSTON/NORTON MA 1100 PM EST MON JAN 21 2019 NOTE: "FAIR" INDICATES FEW OR NO CLOUDS BELOW 12,000 FEET WITH NO SIGNIFICANT WEATHER AND/OR OBSTRUCTIONS TO VISIBILITY. MAZALL-220500- EASTERN MASSACHUSETTS CITY SKY/WX TMP DP RH WIND PRES REMARKS BOSTON FLURRIES 8 -8 48 W21G31 30.12R WCI -12 BEVERLY CLOUDY 6 -9 50 NW20G26 30.08R WCI -14 LAWRENCE CLOUDY 5 -11 47 NW14G30 30.11R WCI -12 BEDFORD NOT AVBL BLUE HILL N/A 2 -6 69 NW17G28 30.05R WCI -18 NORWOOD CLOUDY 7 -7 52 W10G20 30.14R WCI -8 MARSHFIELD NOT AVBL PLYMOUTH MOCLDY N/A N/A N/A W16G32 30.11R TAUNTON MOCLDY 6 -9 50 W13G22 30.14R WCI -10 NEW BEDFORD FAIR 6 -6 57 NW13G29 30.14R WCI -10 $$ MAZALL-220500- CAPE COD AND THE ISLANDS CITY SKY/WX TMP DP RH WIND PRES REMARKS FALMOUTH NOT AVBL HYANNIS NOT AVBL CHATHAM LGT SNOW 9 32 100 NW14G24 30.06R VSB 1 WCI -7 PROVINCETOWN FLURRIES 10 5 80 NW31G41 30.06R WCI -13 NANTUCKET MOCLDY 7 -5 57 NW22G37 30.09R WCI -14 MARTHAS VNYRD MOCLDY 7 -6 55 NW31G46 30.12R WCI -17 $$ MAZALL-220500- CENTRAL AND WESTERN MASSACHUSETTS CITY SKY/WX TMP DP RH WIND PRES REMARKS WORCESTER FAIR 0 -16 46 W21G29 30.05R WCI -22 FITCHBURG FAIR 2 -14 47 NW18 30.12R WCI -19 ORANGE N/A 3 -17 39 NW8 30.16R WCI -10 SPRINGFIELD NOT AVBL WESTFIELD FAIR 3 -16 40 NW10G21 30.23R WCI -12 NORTH ADAMS FAIR 0 -14 51 W15G23 30.23R WCI -19 PITTSFIELD FAIR 0 -16 46 NW14G29 30.18R WCI -19 $$ RIZALL-220500- RHODE ISLAND CITY SKY/WX TMP DP RH WIND PRES REMARKS PROVIDENCE FAIR 5 -8 55 NW12 30.18R WCI -11 NEWPORT FAIR 6 -7 54 NW16G32 30.16R WCI -12 BLOCK ISLAND FAIR 7 -6 55 NW24G32 30.20R WCI -14 SMITHFIELD MOCLDY 1 -7 68 NW12G21 30.12R WCI -16 WESTERLY NOT AVBL $$ CTZALL-220500- CONNECTICUT CITY SKY/WX TMP DP RH WIND PRES REMARKS BRADLEY INTL FAIR 5 -15 39 NW17G31 30.23R WCI -14 HARTFORD FAIR 7 -13 39 NW12G26 30.27R WCI -8 BRIDGEPORT FAIR 11 -4 51 NW16G26 30.30R WCI -6 DANBURY FAIR 8 -4 58 VRB7 30.28R WCI -3 GROTON NOT AVBL NEW HAVEN FAIR 11 -2 56 NW12G22 30.28R WCI -3 CHESTER N/A 7 -9 47 NW16G29 30.20R WCI -11 MERIDEN FAIR 8 -6 52 NW8G18 30.26R WCI -4 WILLIMANTIC FAIR 4 -10 52 NW9G22 30.20R WCI -10 OXFORD FAIR 4 -3 73 NW9G23 30.21R WCI -10 $$ MEZ002-015-021-024-NHZ003-005-008-011-012-014-VTZ005-008-220500- NORTHERN NEW ENGLAND CITY SKY/WX TMP DP RH WIND PRES REMARKS PORTLAND ME CLOUDY 5 -5 63 NW12 30.00R WCI -11 BANGOR ME LGT SNOW 5 -3 69 NW14G21 29.85R WCI -12 CONCORD NH FAIR 3 -11 52 NW18G29 30.08R WCI -17 MANCHESTER NH FAIR 5 -12 45 NW16G35 30.09R WCI -14 NASHUA NH FAIR 3 -10 54 NW12 30.12R WCI -13 PORTSMOUTH NH NOT AVBL JAFFREY NH FAIR 1 -15 47 VRB6G23 30.06R WCI -10 KEENE NH NOT AVBL BURLINGTON VT FAIR 2 -11 54 NW15 30.31R WCI -17 MT. WASHINGTON NOT AVBL $$ NYZ052-076-220500- EASTERN NEW YORK CITY SKY/WX TMP DP RH WIND PRES REMARKS ALBANY FAIR 5 -11 47 NW20G32 30.34R WCI -15 NEW YORK CITY FAIR 15 1 53 NW22G33 30.38R WCI -3 $$ ANZALL-220500- MARINE OBSERVATIONS STATION/POSITION TIME TEMP WIND PRES VSBY WAVE AIR SEA DIR/SP/G HT/PER (UTC) (F) (DEG/KT/KT) (MB) (MI) (FT/S) BOSTON BUOY 0250 9 41 310/ 31/ 39 1016.6 7/ 5 BUZZARDS BAY 0300 8 310/ 34/ 39 1020.2R NANTUCKET SOUND 0340 10 310/ 25/ 33 1019.1R MASS BAY-STELLWA 0304 9 40 310/ 27/ 41 1015.4 0 5/ 4 ISLE OF SHOALS 0300 5 310/ 29/ 35 1015.9R S OF BLOCK IS 0330 45 N/A 12/ 8 $$ ......................KEY......................... SKY/WX - SKY CONDITION/PRESENT WEATHER TMP - TEMPERATURE IN FAHRENHEIT DWPT - DEWPOINT IN FAHRENHEIT RH - RELATIVE HUMIDITY IN PERCENT WIND - DIRECTION AND SPEED IN MPH PRES - MEAN SEA LEVEL PRESSURE IN INCHES OF HG WCI - WIND CHILL INDEX VSB - VISIBILITY IN MILES HX - HEAT INDEX TC - TEMPERATURE IN CELSIUS VRB - VARIABLE WIND DIRECTION N/A - NOT AVAILABLE

USA.gov is the U.S. government's official web portal to all federal, state and local government web resources and services.